sat.trackr.live / text

‹ back to catalog

KHALIFASAT

NORAD 43676 · 2018-084F

PAYLOAD ACTIVE UNKNOWN

§ Identity

Operator
Country
UAE
Launch date
2018-10-29
Launch site
TANSC
Launch vehicle
Mass (kg)
RCS (m²)

External: N2YO · Heavens-Above · Gunter

§ Orbital elements

Epoch: 2026-05-25T04:48:44.629920Z

Period
95.92 min
Inclination
98.0731°
Eccentricity
0.0006941
Mean motion
15.01174692 rev/d
Perigee alt
558.5 km
Apogee alt
568.1 km
Semi-major
6,941.4 km
B*
8.6864e-5
RAAN
326.7101°
Arg perigee
165.8395°
Mean anomaly
194.3024°
Rev number
41,232

§ Raw data

KHALIFASAT1 43676U 18084F   26145.20051655  .00001049  00000+0  86864-4 0  99982 43676  98.0731 326.7101 0006941 165.8395 194.3024 15.01174692412324

JSON: /api/v1/satellites/43676 · /tle

For live sub-satellite position, see the globe view (requires WebGL).

§ Visibility from observer

Set your observer location to see the next 7 days of passes ≥ 10°. The values pass through the URL so the page stays shareable.

No JS? Fill the form by hand. The geolocation button needs JavaScript.